| time (UTC) | temp F | wind direction | speed MPH | gust MPH | rain 1hr in | rain 24hr in | rain mn in | humidity % | barometer mb |
| 20260508193115 | 56 | 341 | 4.0 | 19.0 | 0.00 | 0.03 | 0.03 | 89 | 1019.2 |
| 20260508191613 | 56 | 6 | 12.0 | 19.0 | 0.00 | 0.03 | 0.03 | 89 | 1019.3 |
| 20260508190059 | 56 | 3 | 10.0 | 19.0 | 0.00 | 0.03 | 0.03 | 88 | 1019.5 |
| 20260508184557 | 56 | 13 | 5.0 | 17.0 | 0.01 | 0.04 | 0.03 | 89 | 1019.6 |
| 20260508183055 | 56 | 5 | 4.0 | 14.0 | 0.01 | 0.04 | 0.03 | 89 | 1019.7 |
| 20260508181554 | 56 | 341 | 0.0 | 7.0 | 0.01 | 0.04 | 0.03 | 90 | 1019.6 |
| 20260508180051 | 56 | 354 | 0.0 | 8.0 | 0.01 | 0.04 | 0.03 | 92 | 1019.5 |
| 20260508174549 | 54 | 285 | 0.0 | 3.0 | 0.01 | 0.03 | 0.02 | 93 | 1019.5 |
| 20260508173045 | 53 | 9 | 0.0 | 0.0 | 0.01 | 0.03 | 0.02 | 94 | 1019.6 |
| 20260508171551 | 53 | 335 | 0.0 | 1.0 | 0.01 | 0.03 | 0.02 | 94 | 1019.6 |
| 20260508170049 | 53 | 13 | 0.0 | 4.0 | 0.02 | 0.03 | 0.02 | 94 | 1019.5 |
| 20260508164540 | 52 | 303 | 0.0 | 0.0 | 0.01 | 0.03 | 0.01 | 94 | 1019.4 |
| 20260508163040 | 53 | 312 | 0.0 | 0.0 | 0.01 | 0.03 | 0.01 | 96 | 1019.3 |
| 20260508161537 | 52 | 320 | 0.0 | 0.0 | 0.01 | 0.03 | 0.01 | 96 | 1019.2 |
| 20260508160037 | 51 | 302 | 0.0 | 0.0 | 0.00 | 0.02 | 0.00 | 96 | 1019.2 |
| 20260508154536 | 51 | 308 | 0.0 | 0.0 | 0.00 | 0.02 | 0.00 | 95 | 1019.3 |
| 20260508153034 | 51 | 290 | 0.0 | 0.0 | 0.00 | 0.02 | 0.00 | 96 | 1019.1 |
| 20260508151533 | 51 | 197 | 0.0 | 0.0 | 0.00 | 0.02 | 0.00 | 96 | 1018.9 |
| 20260508150038 | 51 | 169 | 0.0 | 0.0 | 0.00 | 0.02 | 0.00 | 96 | 1018.8 |
| 20260508144528 | 50 | 156 | 0.0 | 0.0 | 0.00 | 0.02 | 0.00 | 96 | 1018.6 |
| 20260508143028 | 50 | 350 | 0.0 | 0.0 | 0.00 | 0.02 | 0.00 | 96 | 1018.7 |
| 20260508141528 | 50 | 90 | 0.0 | 0.0 | 0.00 | 0.02 | 0.00 | 96 | 1018.6 |
| 20260508140025 | 50 | 90 | 0.0 | 0.0 | 0.00 | 0.02 | 0.00 | 96 | 1018.5 |
| 20260508134524 | 50 | 121 | 0.0 | 0.0 | 0.00 | 0.02 | 0.00 | 96 | 1018.5 |
| 20260508133027 | 50 | 122 | 0.0 | 0.0 | 0.00 | 0.02 | 0.00 | 96 | 1018.4 |
| 20260508131524 | 50 | 124 | 0.0 | 0.0 | 0.00 | 0.02 | 0.00 | 96 | 1018.2 |
| 20260508130023 | 50 | 123 | 0.0 | 0.0 | 0.00 | 0.02 | 0.00 | 96 | 1018.3 |
| 20260508124523 | 50 | 123 | 0.0 | 0.0 | 0.00 | 0.02 | 0.00 | 96 | 1018.3 |
| 20260508123022 | 50 | 123 | 0.0 | 0.0 | 0.00 | 0.02 | 0.00 | 96 | 1018.3 |
| 20260508121522 | 50 | 123 | 0.0 | 0.0 | 0.00 | 0.02 | 0.00 | 95 | 1018.3 |
| 20260508120022 | 50 | 133 | 0.0 | 0.0 | 0.00 | 0.02 | 0.00 | 96 | 1018.2 |
| 20260508114520 | 50 | 76 | 0.0 | 0.0 | 0.00 | 0.02 | 0.00 | 96 | 1018.1 |
| 20260508113021 | 50 | 76 | 0.0 | 0.0 | 0.00 | 0.02 | 0.00 | 96 | 1018.1 |
| 20260508111522 | 50 | 348 | 0.0 | 0.0 | 0.00 | 0.02 | 0.00 | 96 | 1018.2 |
| 20260508110019 | 50 | 348 | 0.0 | 0.0 | 0.00 | 0.02 | 0.00 | 96 | 1018.1 |
| 20260508104530 | 50 | 356 | 0.0 | 0.0 | 0.00 | 0.02 | 0.00 | 96 | 1018.0 |
| 20260508103023 | 50 | 2 | 0.0 | 1.0 | 0.00 | 0.02 | 0.00 | 96 | 1018.1 |
| 20260508101517 | 51 | 331 | 0.0 | 0.0 | 0.00 | 0.02 | 0.00 | 96 | 1018.1 |
| 20260508100017 | 50 | 322 | 0.0 | 0.0 | 0.00 | 0.02 | 0.00 | 96 | 1018.1 |
| 20260508094515 | 51 | 339 | 0.0 | 0.0 | 0.00 | 0.02 | 0.00 | 96 | 1018.2 |
| 20260508093014 | 51 | 339 | 0.0 | 0.0 | 0.00 | 0.02 | 0.00 | 96 | 1018.3 |
| 20260508091516 | 51 | 104 | 0.0 | 0.0 | 0.00 | 0.02 | 0.00 | 96 | 1018.4 |
| 20260508090017 | 50 | 104 | 0.0 | 0.0 | 0.00 | 0.02 | 0.00 | 96 | 1018.3 |
| 20260508084512 | 50 | 104 | 0.0 | 0.0 | 0.00 | 0.02 | 0.00 | 96 | 1018.2 |
| 20260508083011 | 50 | 104 | 0.0 | 0.0 | 0.00 | 0.02 | 0.00 | 96 | 1018.1 |
| 20260508081511 | 50 | 103 | 0.0 | 0.0 | 0.00 | 0.02 | 0.00 | 96 | 1018.3 |
| 20260508080010 | 50 | 104 | 0.0 | 0.0 | 0.00 | 0.02 | 0.00 | 95 | 1018.1 |
| 20260508074508 | 50 | 89 | 0.0 | 0.0 | 0.00 | 0.02 | 0.00 | 95 | 1017.9 |
| 20260508073007 | 50 | 189 | 0.0 | 0.0 | 0.00 | 0.02 | 0.00 | 95 | 1017.7 |
| 20260508071508 | 50 | 230 | 0.0 | 0.0 | 0.00 | 0.02 | 0.00 | 94 | 1017.7 |
| 20260508070010 | 51 | 324 | 0.0 | 0.0 | 0.00 | 0.02 | 0.00 | 95 | 1017.8 |
| 20260508064502 | 51 | 300 | 0.0 | 0.0 | 0.00 | 0.02 | 0.02 | 95 | 1017.8 |
| 20260508063001 | 51 | 308 | 0.0 | 0.0 | 0.00 | 0.02 | 0.02 | 95 | 1018.0 |
| 20260508061501 | 51 | 346 | 0.0 | 2.0 | 0.00 | 0.02 | 0.02 | 95 | 1018.0 |
| 20260508060001 | 51 | 343 | 0.0 | 9.0 | 0.00 | 0.02 | 0.02 | 95 | 1018.2 |
| 20260508054600 | 51 | 336 | 0.0 | 10.0 | 0.00 | 0.02 | 0.02 | 95 | 1018.3 |
| 20260508053106 | 51 | 348 | 2.0 | 11.0 | 0.00 | 0.02 | 0.02 | 95 | 1018.3 |
| 20260508051558 | 51 | 310 | 1.0 | 13.0 | 0.00 | 0.02 | 0.02 | 95 | 1018.4 |
| 20260508050100 | 52 | 348 | 1.0 | 11.0 | 0.00 | 0.02 | 0.02 | 95 | 1018.3 |
| 20260508044555 | 52 | 350 | 0.0 | 11.0 | 0.00 | 0.02 | 0.02 | 95 | 1018.4 |
| 20260508043103 | 52 | 356 | 0.0 | 9.0 | 0.00 | 0.02 | 0.02 | 95 | 1018.1 |
| 20260508041554 | 52 | 9 | 0.0 | 11.0 | 0.00 | 0.02 | 0.02 | 94 | 1017.9 |
| 20260508040053 | 52 | 17 | 2.0 | 12.0 | 0.00 | 0.02 | 0.02 | 94 | 1017.9 |
| 20260508034552 | 52 | 355 | 0.0 | 11.0 | 0.00 | 0.02 | 0.02 | 94 | 1017.7 |
| 20260508033052 | 52 | 359 | 0.0 | 13.0 | 0.00 | 0.02 | 0.02 | 93 | 1017.6 |
| 20260508031554 | 52 | 358 | 2.0 | 11.0 | 0.00 | 0.02 | 0.02 | 93 | 1017.6 |
| 20260508030057 | 53 | 353 | 2.0 | 11.0 | 0.00 | 0.02 | 0.02 | 92 | 1017.6 |
| 20260508024556 | 54 | 343 | 0.0 | 12.0 | 0.00 | 0.02 | 0.02 | 93 | 1017.6 |
| 20260508023048 | 54 | 23 | 0.0 | 12.0 | 0.00 | 0.02 | 0.02 | 93 | 1017.6 |
| 20260508021548 | 53 | 354 | 0.0 | 13.0 | 0.00 | 0.02 | 0.02 | 93 | 1017.6 |
| 20260508020049 | 54 | 358 | 2.0 | 13.0 | 0.00 | 0.02 | 0.02 | 92 | 1017.6 |
| 20260508014546 | 54 | 335 | 4.0 | 12.0 | 0.00 | 0.02 | 0.02 | 91 | 1017.5 |
| 20260508013045 | 55 | 2 | 6.0 | 14.0 | 0.00 | 0.02 | 0.02 | 91 | 1017.7 |
| 20260508011545 | 56 | 331 | 2.0 | 12.0 | 0.00 | 0.02 | 0.02 | 88 | 1017.7 |
| 20260508010044 | 56 | 340 | 2.0 | 12.0 | 0.00 | 0.02 | 0.02 | 89 | 1017.8 |
| 20260508004542 | 56 | 347 | 2.0 | 16.0 | 0.00 | 0.02 | 0.02 | 90 | 1017.9 |
| 20260508003041 | 56 | 2 | 2.0 | 14.0 | 0.00 | 0.02 | 0.02 | 90 | 1018.2 |
| 20260508001543 | 56 | 356 | 6.0 | 14.0 | 0.00 | 0.02 | 0.02 | 89 | 1018.2 |
| 20260508000038 | 56 | 343 | 3.0 | 15.0 | 0.00 | 0.02 | 0.02 | 92 | 1018.3 |
| 20260507234541 | 55 | 339 | 4.0 | 16.0 | 0.00 | 0.02 | 0.02 | 91 | 1018.3 |
| 20260507233035 | 55 | 8 | 8.0 | 16.0 | 0.00 | 0.02 | 0.02 | 91 | 1018.5 |
| 20260507231533 | 55 | 325 | 0.0 | 15.0 | 0.00 | 0.02 | 0.02 | 91 | 1018.7 |
| 20260507230032 | 55 | 356 | 7.0 | 18.0 | 0.00 | 0.02 | 0.02 | 91 | 1019.0 |
| 20260507224530 | 55 | 341 | 8.0 | 16.0 | 0.00 | 0.02 | 0.02 | 91 | 1019.0 |
| 20260507223029 | 55 | 332 | 6.0 | 15.0 | 0.00 | 0.02 | 0.02 | 91 | 1019.2 |
| 20260507221529 | 55 | 347 | 6.0 | 14.0 | 0.00 | 0.02 | 0.02 | 91 | 1019.3 |
| 20260507220028 | 55 | 2 | 8.0 | 13.0 | 0.00 | 0.02 | 0.02 | 90 | 1019.3 |
| 20260507214526 | 55 | 353 | 5.0 | 13.0 | 0.00 | 0.03 | 0.02 | 90 | 1019.3 |
| 20260507213028 | 56 | 353 | 1.0 | 14.0 | 0.00 | 0.03 | 0.02 | 90 | 1019.4 |
| 20260507211525 | 55 | 348 | 3.0 | 13.0 | 0.00 | 0.03 | 0.02 | 91 | 1019.6 |
| 20260507210024 | 55 | 352 | 2.0 | 13.0 | 0.00 | 0.03 | 0.02 | 91 | 1019.5 |
| 20260507204523 | 55 | 356 | 0.0 | 12.0 | 0.00 | 0.03 | 0.02 | 93 | 1019.5 |
| 20260507203025 | 55 | 348 | 0.0 | 4.0 | 0.00 | 0.03 | 0.02 | 93 | 1019.7 |
| 20260507201521 | 55 | 342 | 1.0 | 9.0 | 0.00 | 0.03 | 0.02 | 94 | 1019.6 |
| 20260507200022 | 55 | 343 | 1.0 | 9.0 | 0.00 | 0.03 | 0.02 | 94 | 1019.8 |
| 20260507194522 | 55 | 331 | 0.0 | 4.0 | 0.01 | 0.03 | 0.02 | 95 | 1019.8 |